TimeCDT,TemperatureF,Dew PointF,Humidity,Sea Level PressureIn,VisibilityMPH,Wind Direction,Wind SpeedMPH,Gust SpeedMPH,PrecipitationIn,Events,Conditions,WindDirDegrees,DateUTC
12:15 AM,59.0,46.4,63,30.17,10.0,NNE,8.1,-,N/A,,Overcast,20,2012-10-08 05:15:00
12:35 AM,59.0,46.6,63,30.17,10.0,NNE,10.4,-,N/A,,Overcast,30,2012-10-08 05:35:00
12:55 AM,58.6,46.9,65,30.17,10.0,NNE,6.9,-,N/A,,Overcast,30,2012-10-08 05:55:00
1:15 AM,58.3,46.9,66,30.17,10.0,NNE,11.5,-,N/A,,Overcast,30,2012-10-08 06:15:00
1:35 AM,58.1,46.9,66,30.17,10.0,NNE,8.1,-,N/A,,Overcast,20,2012-10-08 06:35:00
1:55 AM,58.1,46.9,66,30.18,10.0,NNE,6.9,-,N/A,,Overcast,20,2012-10-08 06:55:00
2:15 AM,58.1,46.8,66,30.18,10.0,NNE,5.8,-,N/A,,Overcast,20,2012-10-08 07:15:00
2:35 AM,57.7,46.8,67,30.17,10.0,North,5.8,-,N/A,,Overcast,10,2012-10-08 07:35:00
2:55 AM,57.6,46.9,68,30.17,10.0,North,4.6,-,N/A,,Overcast,360,2012-10-08 07:55:00
3:15 AM,57.7,46.8,67,30.17,10.0,North,5.8,-,N/A,,Overcast,360,2012-10-08 08:15:00
3:35 AM,57.4,46.6,67,30.17,10.0,North,8.1,-,N/A,,Overcast,360,2012-10-08 08:35:00
3:55 AM,57.2,46.6,68,30.17,10.0,North,5.8,-,N/A,,Overcast,350,2012-10-08 08:55:00
4:15 AM,57.2,46.4,67,30.16,10.0,North,6.9,-,N/A,,Overcast,350,2012-10-08 09:15:00
4:35 AM,57.0,46.4,68,30.17,10.0,North,6.9,-,N/A,,Overcast,350,2012-10-08 09:35:00
4:55 AM,56.7,46.4,69,30.16,10.0,North,5.8,-,N/A,,Overcast,360,2012-10-08 09:55:00
5:15 AM,56.5,45.7,67,30.17,10.0,North,8.1,-,N/A,,Overcast,360,2012-10-08 10:15:00
5:35 AM,56.5,45.7,67,30.18,10.0,North,6.9,-,N/A,,Overcast,360,2012-10-08 10:35:00
5:55 AM,56.3,45.5,67,30.18,10.0,North,8.1,-,N/A,,Overcast,360,2012-10-08 10:55:00
6:15 AM,56.3,45.5,67,30.18,10.0,North,6.9,-,N/A,,Overcast,360,2012-10-08 11:15:00
6:35 AM,56.3,45.1,66,30.18,10.0,North,8.1,-,N/A,,Overcast,350,2012-10-08 11:35:00
6:55 AM,56.3,45.5,67,30.19,10.0,North,4.6,-,N/A,,Overcast,10,2012-10-08 11:55:00
7:15 AM,56.3,45.5,67,30.19,10.0,North,5.8,-,N/A,,Overcast,10,2012-10-08 12:15:00
7:35 AM,55.8,46.0,70,30.20,10.0,North,8.1,-,N/A,Rain,Rain,360,2012-10-08 12:35:00
7:55 AM,53.8,48.4,82,30.20,10.0,North,4.6,-,N/A,,Overcast,350,2012-10-08 12:55:00
8:15 AM,54.5,49.1,82,30.21,10.0,Calm,Calm,-,N/A,,Overcast,0,2012-10-08 13:15:00
8:35 AM,55.4,48.6,78,30.21,10.0,North,8.1,-,N/A,,Overcast,360,2012-10-08 13:35:00
8:55 AM,56.3,47.7,73,30.22,10.0,North,5.8,-,N/A,,Overcast,360,2012-10-08 13:55:00
9:15 AM,56.7,47.5,71,30.22,10.0,North,5.8,-,N/A,,Overcast,10,2012-10-08 14:15:00
9:35 AM,56.8,47.3,70,30.22,10.0,North,-9999.0,-,N/A,,Overcast,0,2012-10-08 14:35:00
9:55 AM,57.4,47.5,70,30.22,10.0,North,6.9,-,N/A,,Overcast,10,2012-10-08 14:55:00
10:15 AM,57.9,47.7,69,30.23,10.0,NNE,8.1,-,N/A,,Overcast,20,2012-10-08 15:15:00
10:35 AM,58.3,47.5,67,30.23,10.0,NE,6.9,-,N/A,,Overcast,40,2012-10-08 15:35:00
10:55 AM,58.5,47.3,66,30.22,10.0,NE,8.1,-,N/A,,Overcast,50,2012-10-08 15:55:00
11:15 AM,59.9,47.8,64,30.22,10.0,North,6.9,-,N/A,,Overcast,10,2012-10-08 16:15:00
11:35 AM,60.8,48.2,63,30.22,10.0,NE,6.9,-,N/A,,Overcast,50,2012-10-08 16:35:00
11:55 AM,62.1,48.4,61,30.22,10.0,ENE,5.8,-,N/A,,Overcast,70,2012-10-08 16:55:00
12:15 PM,64.4,49.1,58,30.21,10.0,NNE,5.8,-,N/A,,Overcast,20,2012-10-08 17:15:00
12:55 PM,68.0,49.6,52,30.19,10.0,East,4.6,-,N/A,,Overcast,90,2012-10-08 17:55:00
1:15 PM,69.4,50.4,51,30.18,10.0,North,5.8,-,N/A,,Scattered Clouds,360,2012-10-08 18:15:00
1:35 PM,69.8,50.0,49,30.17,10.0,NNW,3.5,-,N/A,,Clear,340,2012-10-08 18:35:00
1:55 PM,71.6,49.8,46,30.16,10.0,Calm,Calm,-,N/A,,Clear,0,2012-10-08 18:55:00
2:15 PM,73.8,51.3,45,30.15,10.0,East,3.5,-,N/A,,Clear,80,2012-10-08 19:15:00
2:35 PM,74.3,50.5,43,30.14,10.0,Calm,Calm,-,N/A,,Scattered Clouds,0,2012-10-08 19:35:00
3:15 PM,73.6,50.5,44,30.12,10.0,ENE,5.8,-,N/A,,Scattered Clouds,60,2012-10-08 20:15:00
3:35 PM,74.8,50.2,42,30.12,10.0,Calm,Calm,-,N/A,,Scattered Clouds,0,2012-10-08 20:35:00
3:55 PM,74.1,50.0,43,30.11,10.0,Calm,Calm,-,N/A,,Clear,0,2012-10-08 20:55:00
4:15 PM,75.6,51.4,43,30.11,10.0,Calm,Calm,-,N/A,,Clear,0,2012-10-08 21:15:00
4:35 PM,74.8,50.5,42,30.10,10.0,Calm,Calm,-,N/A,,Clear,0,2012-10-08 21:35:00
4:55 PM,73.9,50.7,44,30.10,10.0,Calm,Calm,-,N/A,,Scattered Clouds,0,2012-10-08 21:55:00
5:15 PM,74.1,50.4,43,30.10,10.0,Calm,Calm,-,N/A,,Mostly Cloudy,0,2012-10-08 22:15:00
5:35 PM,74.8,50.9,43,30.10,10.0,NNE,3.5,-,N/A,,Scattered Clouds,30,2012-10-08 22:35:00
5:55 PM,73.8,50.4,44,30.09,10.0,Calm,Calm,-,N/A,,Clear,0,2012-10-08 22:55:00
6:15 PM,70.3,50.2,49,30.09,10.0,East,3.5,-,N/A,,Clear,90,2012-10-08 23:15:00
6:35 PM,69.3,51.6,53,30.09,10.0,Calm,Calm,-,N/A,,Mostly Cloudy,0,2012-10-08 23:35:00
6:55 PM,68.7,51.4,54,30.09,10.0,Calm,Calm,-,N/A,,Overcast,0,2012-10-08 23:55:00
7:35 PM,64.8,51.3,62,30.10,10.0,Calm,Calm,-,N/A,,Scattered Clouds,0,2012-10-09 00:35:00
7:55 PM,62.6,51.3,66,30.11,10.0,Calm,Calm,-,N/A,,Clear,0,2012-10-09 00:55:00
8:15 PM,61.0,48.0,62,30.11,10.0,Calm,Calm,-,N/A,,Clear,0,2012-10-09 01:15:00
9:15 PM,57.2,49.5,75,30.13,10.0,Calm,Calm,-,N/A,,Clear,0,2012-10-09 02:15:00
9:55 PM,56.7,49.5,77,30.13,10.0,Calm,Calm,-,N/A,,Clear,0,2012-10-09 02:55:00
10:15 PM,55.6,48.2,76,30.13,10.0,Calm,Calm,-,N/A,,Clear,0,2012-10-09 03:15:00
10:35 PM,55.2,48.7,79,30.13,10.0,Calm,Calm,-,N/A,,Clear,0,2012-10-09 03:35:00
10:55 PM,55.9,49.5,79,30.12,10.0,Calm,Calm,-,N/A,,Clear,0,2012-10-09 03:55:00
11:35 PM,56.8,52.7,86,30.12,10.0,Calm,Calm,-,N/A,,Overcast,0,2012-10-09 04:35:00
11:55 PM,57.2,53.6,88,30.11,10.0,Calm,Calm,-,N/A,,Overcast,0,2012-10-09 04:55:00